Location: Fort Wayne
(41.1310°N, 85.1290°W)
Time: 10:05:37
(UTC-05:00)

ISS - Visible Passes

Search period start: 20 December 2014 00:00
Search period end: 30 December 2014 00:00
Orbit: 404 x 415 km, 51.6° (Epoch: 20 December)

Date Brightness Start Highest point End Pass type
(mag) Time Alt. Az. Time Alt. Az. Time Alt. Az.
20 Dec -1.3 18:44:41 10° NNW 18:46:32 17° N 18:46:32 17° N visible
21 Dec -1.2 17:53:59 10° NNW 17:55:55 15° N 17:57:51 10° NE visible
21 Dec -0.6 19:30:06 10° NW 19:30:44 14° NW 19:30:44 14° NW visible
22 Dec -2.1 18:39:25 10° NW 18:42:14 26° NNE 18:42:14 26° NNE visible
23 Dec -1.7 17:48:42 10° NNW 17:51:10 19° NNE 17:53:38 10° ENE visible
23 Dec -1.6 19:24:50 10° NW 19:26:35 29° NW 19:26:35 29° NW visible
24 Dec -3.1 18:33:58 10° NW 18:37:10 49° NNE 18:38:20 32° E visible
24 Dec 0.3 20:11:06 10° W 20:11:08 10° W 20:11:08 10° W visible
25 Dec -2.4 17:43:07 10° NW 17:46:06 31° NNE 17:49:04 10° E visible
25 Dec -1.9 19:19:39 10° WNW 19:22:41 34° SW 19:23:07 33° SSW visible
26 Dec -3.0 18:28:28 10° WNW 18:31:44 68° SW 18:34:59 10° SE visible
27 Dec -0.2 19:15:05 10° W 19:16:51 14° SW 19:18:38 10° SSW visible
28 Dec -0.9 18:23:09 10° WNW 18:25:56 25° SW 18:28:41 10° SSE visible
